Date/Time (UTC),ProbHail,ProbWind,ProbTor,MESH,VIL Density,Flash Rate,Max Flash Density,LJA sigma-level,Max 0-2km AzShear,LLAZ 98th%,MLAZ 98th%,MUCAPE,MLCAPE,CAPE -10C to -30C,MLCIN,SRH 0-1km AGL,EBShear,MeanWind 0-1km AGL,Norm. Sat. Growth Rate,PWAT,WBZ,AvgBeamHgt,size
2020/03/02 21:46,3,1,0,0.05,0.7,0,0.0,0.0,5,4,2,1729,1394,582,0,65,31.0,26.7,3.4,1.0,7.7,3.6,44
2020/03/02 21:48,3,1,0,0.05,0.7,0,0.02,0.0,5,4,4,1721,1396,582,0,64,30.7,26.8,3.4,0.9,7.7,3.3,41
2020/03/02 21:50,3,1,0,0.12,0.7,0,0.02,0.0,5,4,1,1720,1396,582,0,64,30.8,26.8,3.4,1.0,7.7,3.3,57
2020/03/02 21:52,3,2,0,0.12,0.7,0,0.04,0.0,6,5,1,1720,1396,582,0,64,30.8,26.8,3.4,1.0,7.7,3.3,57
2020/03/02 21:54,3,2,0,0.12,0.7,2,0.08,0.0,6,5,5,1715,1398,581,0,64,30.7,26.8,3.4,0.9,7.7,3.2,126
2020/03/02 21:56,8,16,0,0.39,1.6,4,0.17,0.0,5,5,5,1710,1402,579,0,65,30.8,26.8,3.4,0.9,7.7,3.1,85
2020/03/02 21:58,11,20,1,0.41,1.7,4,0.17,0.0,6,5,5,1590,1268,559,0,117,35.3,25.7,3.4,0.9,7.7,3.0,96
2020/03/02 22:00,11,29,1,0.41,1.9,4,0.17,0.0,6,5,6,1590,1270,559,0,114,35.2,25.7,3.4,0.9,7.7,2.9,87
2020/03/02 22:02,45,49,1,0.97,2.6,5,0.17,0.0,6,5,6,1591,1276,557,0,111,35.0,25.8,3.4,0.9,7.7,2.7,209
2020/03/02 22:04,43,57,1,0.98,3.4,6,0.17,0.0,6,5,6,1591,1283,555,0,108,34.9,25.8,3.4,0.9,7.7,2.7,221
2020/03/02 22:06,55,60,1,1.11,3.4,7,0.17,0.0,6,5,6,1591,1289,553,0,107,34.8,25.9,3.4,0.9,7.7,2.6,204
2020/03/02 22:08,71,85,3,1.12,3.4,24,0.63,12.5,7,7,7,1593,1299,550,0,104,34.6,25.9,3.4,0.9,7.7,2.5,217
2020/03/02 22:10,64,85,3,1.12,3.3,24,0.63,0.0,7,7,7,1594,1305,548,0,103,34.5,25.9,3.4,0.9,7.7,2.4,205
2020/03/02 22:12,82,91,3,1.12,3.3,42,0.83,2.7,7,7,7,1595,1308,546,1,102,34.5,26.0,3.4,0.9,7.7,2.3,220
2020/03/02 22:14,70,79,3,0.76,2.8,42,0.83,0.0,7,6,7,1595,1299,550,0,104,34.7,25.9,3.4,0.9,7.7,2.5,310
2020/03/02 22:16,76,81,3,0.86,3.0,42,0.83,0.0,7,6,7,1594,1291,553,0,107,34.9,25.8,3.4,0.9,7.7,2.6,261
2020/03/02 22:18,73,88,3,0.94,3.0,42,0.83,0.5,7,6,7,1596,1303,549,0,104,34.7,25.9,3.4,0.9,7.7,2.5,251
2020/03/02 22:20,93,95,3,1.35,3.2,57,0.96,2.3,7,6,7,1602,1322,539,1,99,34.4,26.0,3.4,0.9,7.7,2.1,226
2020/03/02 22:22,93,89,3,1.39,3.2,57,0.96,0.0,7,5,7,1600,1319,541,1,99,34.4,26.0,3.4,0.9,7.7,2.2,253
2020/03/02 22:24,93,92,4,1.39,3.4,57,0.96,0.0,7,5,9,1606,1326,537,1,98,34.3,26.0,3.4,0.9,7.7,2.1,202
2020/03/02 22:26,94,95,4,1.44,3.6,57,0.96,1.0,6,5,10,1608,1328,535,1,97,34.2,26.1,3.4,0.9,7.7,2.0,210
2020/03/02 22:28,94,95,4,1.55,3.6,55,0.96,0.0,5,5,9,1612,1329,533,1,96,34.1,26.1,3.4,0.9,7.7,1.9,239
2020/03/02 22:30,94,95,4,1.55,3.6,53,0.96,0.1,6,5,9,1611,1328,533,1,96,34.1,26.1,3.4,0.9,7.7,1.9,275
2020/03/02 22:32,94,95,4,1.55,3.6,53,0.96,0.0,7,6,9,1615,1329,532,1,95,34.1,26.2,3.4,0.9,7.7,1.8,275
2020/03/02 22:34,93,95,5,1.55,3.6,50,0.96,1.3,7,6,10,1616,1328,531,1,94,34.0,26.2,3.4,0.9,7.7,1.7,284
2020/03/02 22:36,92,95,5,1.44,3.7,50,0.96,0.0,7,6,10,1618,1327,531,1,94,34.0,26.2,3.4,0.9,7.7,1.7,302
2020/03/02 22:38,93,95,4,1.52,3.7,50,0.96,0.0,7,6,10,1624,1329,529,1,93,33.8,26.3,3.4,0.9,7.7,1.6,225
2020/03/02 22:40,93,95,4,1.52,3.8,50,0.96,1.5,7,6,9,1627,1327,528,2,92,33.7,26.4,3.4,0.9,7.7,1.5,226
2020/03/02 22:42,93,95,6,1.52,3.8,48,0.96,0.0,8,6,9,1627,1327,528,2,92,33.7,26.4,3.4,0.9,7.7,1.5,226
2020/03/02 22:44,94,95,6,1.55,4.0,52,1.21,1.5,8,6,10,1628,1325,528,2,91,33.7,26.4,3.4,0.9,7.7,1.5,210
2020/03/02 22:46,94,95,6,1.55,4.0,52,1.21,0.0,8,6,10,1628,1323,528,2,91,33.6,26.5,3.4,0.9,7.7,1.4,225
2020/03/02 22:48,94,95,10,1.63,4.4,52,1.21,0.1,9,7,9,1633,1321,527,2,90,33.6,26.5,3.4,0.9,7.7,1.3,255
2020/03/02 22:50,95,95,8,1.78,4.4,52,1.21,0.0,9,7,8,1633,1318,526,2,89,33.5,26.5,3.4,0.9,7.7,1.3,246
2020/03/02 22:52,95,95,9,1.81,4.4,50,1.21,0.0,9,7,8,1635,1318,525,2,89,33.5,26.6,3.4,0.9,7.7,1.2,239
2020/03/02 22:54,95,95,10,1.81,4.1,50,1.21,1.0,9,7,10,1633,1311,525,2,88,33.4,26.6,3.4,0.9,7.7,1.1,241
2020/03/02 22:56,94,95,14,1.81,4.1,45,1.21,0.2,10,6,10,1415,1238,499,1,129,36.1,26.7,3.4,1.0,7.7,1.1,240
2020/03/02 22:58,93,95,17,1.69,4.0,48,1.21,0.3,9,7,10,1410,1233,496,1,127,35.9,26.7,3.4,1.0,7.7,1.0,252
2020/03/02 23:00,93,95,17,1.69,3.7,48,1.21,0.0,10,7,9,1409,1228,497,1,126,35.8,26.7,3.4,1.0,7.7,1.0,256
2020/03/02 23:02,93,95,27,1.69,3.5,48,1.21,0.0,12,7,9,1407,1222,496,1,125,35.7,26.7,3.4,1.0,7.7,0.9,234
2020/03/02 23:04,92,95,24,1.46,3.1,48,1.21,0.1,12,7,8,1405,1215,493,1,123,35.5,26.7,3.4,1.0,7.7,0.8,237
2020/03/02 23:06,87,92,24,1.46,3.1,33,1.21,0.4,12,7,8,1405,1213,493,1,122,35.5,26.7,3.4,1.0,7.7,0.8,237
2020/03/02 23:08,73,88,9,1.46,3.1,19,1.21,0.1,8,7,8,1405,1208,489,1,121,35.4,26.8,Storm,1.0,7.7,0.7,233
2020/03/02 23:10,69,88,13,1.26,3.3,22,1.21,0.3,9,7,9,1404,1207,488,1,120,35.4,26.8,Storm,1.0,7.7,0.7,210
2020/03/02 23:12,85,97,24,1.27,3.6,41,1.21,2.0,11,8,9,1404,1202,489,1,120,35.2,26.8,Storm,1.0,7.7,0.6,203
2020/03/02 23:14,93,95,22,1.74,3.6,49,1.21,1.2,11,8,7,1405,1202,484,1,118,35.1,26.9,Storm,1.0,7.7,0.6,305
2020/03/02 23:16,95,95,19,2.02,3.6,49,0.98,0.0,11,8,7,1405,1199,482,1,117,35.1,26.9,Storm,1.0,7.7,0.5,300
2020/03/02 23:18,95,95,16,2.15,3.5,49,0.98,0.6,10,9,7,1404,1197,481,1,116,34.9,27.0,Storm,1.0,7.6,0.4,264
2020/03/02 23:20,95,95,25,2.28,4.2,49,0.98,0.2,10,9,9,1406,1194,480,1,114,34.7,27.1,Storm,1.0,7.6,0.4,264
2020/03/02 23:22,94,95,22,2.28,4.2,43,0.98,0.0,10,9,9,1405,1194,481,1,114,34.7,27.0,Storm,1.0,7.6,0.4,214
2020/03/02 23:24,94,95,22,2.28,4.2,43,0.98,0.0,10,9,9,1410,1194,478,1,112,34.6,27.1,Storm,1.0,7.6,0.3,272
2020/03/02 23:26,93,95,22,1.9,3.5,43,0.98,0.6,10,9,6,1414,1197,476,2,112,34.7,27.1,Storm,1.0,7.6,0.3,241
2020/03/02 23:28,72,95,20,1.2,3.5,27,0.98,0.2,10,9,7,1414,1194,477,1,110,34.4,27.2,Storm,0.9,7.6,0.2,262
2020/03/02 23:30,75,94,5,1.27,3.5,28,0.86,0.1,8,7,6,1419,1197,475,1,108,34.3,27.3,Storm,0.9,7.6,0.1,279
2020/03/02 23:32,78,94,4,1.27,3.7,33,0.86,0.4,8,6,7,1419,1197,475,1,108,34.3,27.3,Storm,0.9,7.6,0.1,279
2020/03/02 23:34,91,92,4,1.93,3.7,34,0.86,0.6,8,6,7,1422,1198,475,1,106,34.2,27.3,Storm,0.9,7.6,0.1,249
2020/03/02 23:36,92,95,4,2.08,3.9,34,0.86,0.0,8,6,7,1429,1200,473,1,104,34.2,27.4,Storm,0.9,7.6,0.1,241
2020/03/02 23:38,92,95,4,2.08,4.2,34,0.86,0.8,8,6,6,1430,1200,473,1,103,34.1,27.4,Storm,0.9,7.6,0.1,263
2020/03/02 23:40,92,92,2,2.46,4.2,34,0.86,0.0,7,5,6,1430,1200,473,1,103,34.1,27.4,Storm,0.9,7.6,0.1,263
2020/03/02 23:42,92,95,3,2.46,4.2,36,0.86,1.2,7,6,6,1431,1200,473,1,103,34.1,27.5,Storm,0.9,7.6,0.1,258
2020/03/02 23:44,95,95,3,2.46,4.3,53,0.88,7.4,7,6,6,1434,1200,472,1,101,34.0,27.5,Storm,0.9,7.6,0.1,264
2020/03/02 23:46,95,95,2,2.07,4.4,53,0.88,0.0,7,6,6,1436,1200,472,1,100,34.0,27.6,Storm,0.9,7.6,0.2,246
2020/03/02 23:48,95,95,2,2.31,4.6,53,0.88,0.0,7,6,5,1440,1201,471,0,99,34.0,27.6,Storm,0.9,7.6,0.2,235
2020/03/02 23:50,95,95,5,2.31,4.6,53,0.88,0.0,7,6,7,1440,1200,471,0,98,34.0,27.7,Storm,0.9,7.6,0.3,248
2020/03/02 23:52,94,95,4,2.31,4.6,39,0.88,0.0,7,5,8,1441,1200,470,0,97,34.0,27.7,Storm,0.9,7.6,0.3,248
2020/03/02 23:54,91,92,4,2.11,4.5,31,0.88,0.1,7,5,7,1441,1200,470,0,97,34.0,27.8,Storm,0.9,7.6,0.4,254
2020/03/02 23:56,85,92,3,2.11,4.5,22,0.88,0.4,7,5,7,1441,1200,469,0,96,34.0,27.8,Storm,0.9,7.6,0.4,219
2020/03/02 23:58,83,89,6,1.92,4.2,22,0.88,0.0,9,6,7,1067,1049,388,4,153,37.4,28.2,Storm,1.0,7.6,0.4,219
2020/03/03 00:00,62,93,20,1.06,3.7,28,0.88,2.1,10,8,9,1070,1051,390,3,152,37.2,28.4,Storm,1.0,7.6,0.5,272
2020/03/03 00:02,84,95,20,1.65,3.7,28,0.88,0.0,10,8,9,1070,1051,390,3,152,37.2,28.4,Storm,1.0,7.6,0.5,272
2020/03/03 00:04,84,95,20,1.69,3.7,28,0.88,1.0,10,8,8,1068,1048,390,3,151,37.2,28.4,Storm,1.0,7.6,0.6,298
2020/03/03 00:06,90,95,22,1.69,3.7,41,0.88,2.5,10,8,9,1066,1043,389,3,150,37.3,28.4,Storm,1.0,7.6,0.7,275
2020/03/03 00:08,79,95,22,1.69,3.5,41,0.88,0.0,10,8,9,1066,1043,389,3,150,37.3,28.4,0,1.0,7.6,0.7,275
2020/03/03 00:10,79,95,21,1.69,3.5,41,0.88,0.0,10,8,8,1065,1039,388,3,149,37.3,28.3,0,1.0,7.6,0.8,261
2020/03/03 00:12,79,95,19,1.69,3.5,41,0.88,0.0,10,8,8,1064,1037,388,4,148,37.4,28.3,0,1.0,7.6,0.9,271
2020/03/03 00:14,77,97,15,1.55,3.5,41,0.88,0.1,9,7,8,1065,1036,388,4,147,37.4,28.3,0,1.0,7.6,0.9,264
2020/03/03 00:16,74,97,14,1.55,3.5,36,0.72,1.2,9,8,8,1066,1033,388,4,144,37.4,28.4,0,1.0,7.6,1.1,234
2020/03/03 00:18,45,89,14,0.97,3.4,36,0.72,0.0,9,8,8,1066,1033,388,4,144,37.4,28.4,0,1.0,7.6,1.1,234
2020/03/03 00:20,55,90,14,1.11,3.5,36,0.72,0.0,9,8,7,1066,1031,387,5,143,37.4,28.3,0,1.0,7.6,1.1,221
2020/03/03 00:22,62,95,13,1.24,3.5,37,0.72,1.4,10,7,7,1065,1029,385,5,142,37.5,28.3,0,1.0,7.6,1.2,225
2020/03/03 00:24,65,95,14,1.24,3.5,39,0.72,0.3,10,7,9,1063,1026,383,6,141,37.6,28.3,0,1.0,7.6,1.3,233
2020/03/03 00:26,65,95,14,1.24,3.9,39,0.72,0.0,10,7,9,1062,1024,381,6,140,37.7,28.3,0,1.0,7.6,1.3,232
2020/03/03 00:28,65,95,17,1.24,3.9,39,0.72,0.5,10,6,11,1060,1021,378,6,139,37.7,28.3,0,1.0,7.6,1.5,275
2020/03/03 00:30,77,97,17,1.57,3.9,39,0.72,0.7,10,6,11,1058,1018,373,6,137,37.7,28.4,0,1.0,7.6,1.7,287
2020/03/03 00:32,69,94,19,1.57,3.7,32,0.72,0.0,10,6,11,1058,1018,373,6,137,37.7,28.4,0,1.0,7.6,1.7,287
2020/03/03 00:34,79,95,22,2.12,3.7,32,0.72,0.2,10,7,9,1057,1015,371,6,137,37.7,28.4,0,1.0,7.6,1.7,285
2020/03/03 00:36,79,95,22,2.15,3.8,32,0.72,0.0,10,7,10,1053,1011,368,6,135,37.7,28.4,0,1.0,7.6,1.8,274
2020/03/03 00:38,79,95,18,2.15,3.9,31,0.72,0.5,10,7,10,1047,1005,365,7,134,37.7,28.4,0,1.0,7.6,2.0,277
2020/03/03 00:40,79,95,18,2.15,3.9,31,0.71,0.0,10,7,9,1047,1005,365,7,134,37.7,28.4,0,1.0,7.6,2.0,277
2020/03/03 00:42,89,95,18,1.99,4.1,51,0.71,9.6,10,7,9,1044,1000,363,7,133,37.5,28.4,0,1.0,7.6,2.1,280
2020/03/03 00:44,89,95,14,1.99,4.1,57,0.71,0.8,10,7,8,1047,999,362,6,133,37.2,28.5,0,1.0,7.6,2.2,285
2020/03/03 00:46,89,95,12,1.98,4.1,57,0.71,0.0,10,6,8,1045,998,361,6,132,37.2,28.5,0,1.0,7.6,2.2,275
2020/03/03 00:48,82,97,7,1.47,3.7,57,0.71,0.2,7,6,8,1046,996,360,6,132,37.0,28.5,0,1.0,7.6,2.3,316
2020/03/03 00:50,82,97,6,1.5,3.8,57,0.63,0.0,9,6,8,1042,993,359,6,132,37.0,28.5,0,1.0,7.6,2.4,363
2020/03/03 00:52,83,97,7,1.5,3.8,59,0.63,1.8,10,6,8,1037,986,357,7,131,36.8,28.5,0,1.0,7.6,2.6,358
2020/03/03 00:54,83,97,10,1.5,3.8,59,0.63,0.0,10,7,8,1037,986,357,7,131,36.8,28.5,0,1.0,7.6,2.6,377
2020/03/03 00:56,80,97,10,1.36,3.8,59,0.63,0.8,9,7,8,1032,979,355,7,130,36.7,28.5,0,1.0,7.6,2.7,356
2020/03/03 00:58,80,97,10,1.36,3.8,59,0.63,0.3,9,7,7,1028,974,354,7,129,36.7,28.5,0,1.0,7.5,2.9,387
2020/03/03 01:00,79,97,10,1.36,3.8,57,0.63,0.0,10,7,7,1022,965,351,8,128,36.7,28.5,0,1.0,7.5,3.0,361
2020/03/03 01:02,75,97,8,1.29,3.6,57,0.63,0.0,10,7,7,1020,960,350,9,128,36.7,28.5,0,1.0,7.5,3.0,346
2020/03/03 01:04,61,93,8,1.04,3.6,57,0.63,0.3,10,7,7,1017,955,349,9,128,36.6,28.5,0,1.0,7.5,3.0,375
2020/03/03 01:06,70,95,8,1.16,3.7,55,0.63,1.8,10,7,6,1012,947,347,10,128,36.6,28.6,0,1.0,7.5,3.0,360
2020/03/03 01:08,70,95,6,1.19,3.7,55,0.63,0.0,9,7,6,1012,947,347,10,128,36.6,28.6,0,1.0,7.5,3.0,366
2020/03/03 01:10,70,95,5,1.19,3.7,55,0.63,0.0,9,7,6,1005,936,346,11,128,36.6,28.6,0,1.0,7.5,3.0,376
2020/03/03 01:12,70,95,11,1.19,3.5,55,0.72,0.1,10,7,8,1005,936,346,11,128,36.6,28.6,0,1.0,7.5,3.0,376
2020/03/03 01:14,70,95,14,1.15,4.0,55,0.72,0.0,10,8,7,1001,932,345,12,128,36.6,28.6,0,1.0,7.5,2.9,353
2020/03/03 01:16,68,95,14,1.15,4.0,52,0.72,1.4,10,8,7,997,928,345,13,128,36.6,28.7,0,1.0,7.5,2.7,358
2020/03/03 01:18,65,95,12,1.14,4.0,52,0.72,0.0,10,8,7,991,923,346,14,128,36.6,28.7,0,1.0,7.5,2.6,368
2020/03/03 01:20,41,90,17,0.76,3.5,52,0.72,0.0,12,8,6,991,923,346,14,128,36.6,28.7,0,1.0,7.5,2.6,368
2020/03/03 01:22,52,92,20,0.93,3.2,52,0.72,0.0,14,8,6,989,923,347,14,129,36.5,28.8,0,1.0,7.5,2.5,372
2020/03/03 01:24,46,89,21,0.93,3.2,44,0.72,1.1,13,9,6,981,918,349,15,129,36.6,28.9,0,1.0,7.5,2.3,386
2020/03/03 01:26,46,89,21,0.93,3.2,44,0.72,0.0,13,9,6,981,918,349,15,129,36.6,28.9,0,1.0,7.5,2.3,386
2020/03/03 01:28,46,89,20,0.91,3.2,44,0.72,0.1,13,9,6,978,916,349,15,130,36.6,28.9,0,0.9,7.5,2.3,363
2020/03/03 01:30,53,90,10,1.05,3.2,44,0.72,0.0,10,8,6,1184,1106,393,8,186,35.6,28.4,0,1.0,7.5,2.2,346
2020/03/03 01:32,37,87,30,1.05,3.1,28,0.72,0.6,16,8,8,1177,1099,392,8,187,35.5,28.4,0,1.0,7.5,2.1,349
2020/03/03 01:34,41,89,30,1.05,3.1,31,0.72,0.3,16,8,7,1175,1097,392,8,188,35.5,28.5,0,1.0,7.5,2.1,381
2020/03/03 01:36,41,89,29,0.98,3.3,36,0.72,0.5,16,8,6,1166,1088,391,8,190,35.4,28.7,0,1.0,7.5,1.9,455
2020/03/03 01:38,38,87,29,0.92,3.3,36,0.72,0.0,17,8,6,1166,1088,391,8,190,35.4,28.7,0,1.0,7.5,1.9,455
2020/03/03 01:40,52,92,31,0.97,3.3,47,0.72,3.8,15,9,7,1163,1084,390,9,191,35.3,28.7,0,1.0,7.5,1.9,438
2020/03/03 01:42,71,95,36,1.29,3.3,47,0.72,0.0,15,9,8,1149,1068,387,9,191,35.3,28.7,0,1.0,7.5,1.8,444
2020/03/03 01:44,71,95,27,1.29,3.6,47,0.59,0.0,15,9,7,1149,1068,387,9,191,35.3,28.7,0,1.0,7.5,1.8,444
2020/03/03 01:46,81,95,29,1.66,3.6,47,0.59,0.7,13,8,9,1137,1054,383,9,191,35.3,28.8,0,1.0,7.5,1.7,476
2020/03/03 01:48,78,97,23,1.66,3.6,42,0.48,0.3,13,8,9,1132,1048,382,10,191,35.3,28.8,0,1.0,7.5,1.6,458
2020/03/03 01:50,87,95,29,1.79,3.6,60,0.52,1.8,14,9,9,1129,1045,381,10,192,35.2,28.8,0,1.0,7.5,1.6,436
2020/03/03 01:52,87,95,46,1.79,3.6,61,0.57,0.1,14,9,12,1120,1034,378,10,192,35.3,28.8,0,1.0,7.5,1.5,424
2020/03/03 01:54,87,95,46,1.79,3.8,61,0.57,0.0,13,9,13,1114,1028,376,10,192,35.2,28.8,0,1.0,7.5,1.5,426
2020/03/03 01:56,86,95,66,1.66,3.8,61,0.57,0.7,16,11,13,1111,1023,375,10,192,35.2,28.8,0,1.0,7.5,1.4,424
2020/03/03 01:58,86,95,74,1.66,3.8,61,0.63,0.7,16,11,11,1185,1050,364,7,179,35.3,32.7,0,1.1,7.5,1.4,436
2020/03/03 02:00,86,95,80,1.65,3.8,60,0.76,0.5,22,12,11,1185,1049,364,7,179,35.3,32.7,0,1.1,7.5,1.4,451
2020/03/03 02:02,84,97,80,1.46,3.8,60,0.76,0.0,22,12,11,1178,1041,362,7,179,35.3,32.7,0,1.1,7.5,1.3,456
2020/03/03 02:04,84,95,80,1.53,3.6,60,0.76,0.1,22,12,11,1171,1034,361,7,180,35.4,32.7,0,1.1,7.5,1.3,476
2020/03/03 02:06,84,95,79,1.53,3.8,61,0.76,1.6,23,12,11,1164,1028,360,7,180,35.4,32.7,0,1.1,7.5,1.3,459
2020/03/03 02:08,84,95,79,1.53,3.8,61,0.76,0.0,23,12,9,1159,1023,358,7,180,35.5,32.6,0,1.0,7.5,1.3,490
2020/03/03 02:10,85,95,79,1.57,3.8,61,0.76,0.0,23,12,9,1143,1010,356,8,181,35.5,32.6,0,1.0,7.5,1.2,471
2020/03/03 02:12,85,95,50,1.57,3.8,61,0.76,0.0,14,11,9,1143,1009,356,8,181,35.5,32.6,0,1.0,7.5,1.2,470
2020/03/03 02:14,81,95,67,1.57,3.7,48,0.76,0.0,14,11,10,1136,1003,355,8,182,35.6,32.5,0,1.0,7.5,1.2,462
2020/03/03 02:16,81,95,70,1.57,3.7,51,0.76,2.1,17,11,10,1131,999,354,9,182,35.6,32.4,0,1.0,7.5,1.2,460
2020/03/03 02:18,84,95,75,1.53,3.6,61,0.76,0.6,15,13,9,1117,986,353,9,183,35.7,32.5,0,1.0,7.5,1.2,477
2020/03/03 02:20,84,95,75,1.53,3.6,61,0.76,0.0,15,13,8,1108,979,352,9,183,35.7,32.6,0,1.0,7.5,1.1,481
2020/03/03 02:22,82,97,66,1.41,3.6,61,0.76,0.0,15,13,8,1108,979,352,9,183,35.7,32.6,0,1.0,7.5,1.1,482
2020/03/03 02:24,75,97,56,1.25,3.7,61,0.76,0.1,14,13,8,1101,970,352,10,183,35.7,32.5,0,1.0,7.5,1.2,460
2020/03/03 02:26,84,95,59,1.72,3.7,53,0.76,0.9,15,13,8,1090,959,351,10,184,35.7,32.6,0,1.0,7.5,1.2,477
2020/03/03 02:28,88,95,58,2.12,3.9,53,0.76,0.0,15,13,8,1070,937,349,11,184,35.8,32.6,0,1.0,7.5,1.2,495
2020/03/03 02:30,88,95,58,2.12,3.9,53,0.76,0.0,15,13,8,1070,937,349,11,184,35.8,32.6,0,1.0,7.5,1.2,495
2020/03/03 02:32,88,95,54,2.12,3.9,53,0.74,0.0,15,13,8,1056,923,347,11,185,35.8,32.7,0,1.0,7.5,1.2,465
2020/03/03 02:34,81,95,62,2.12,3.9,35,0.74,0.2,15,12,8,1049,916,346,11,185,35.8,32.7,0,1.0,7.5,1.2,474
2020/03/03 02:36,72,97,53,1.63,3.9,35,0.74,0.0,18,11,8,1040,911,345,11,184,35.8,33.0,0,1.0,7.5,1.2,537
2020/03/03 02:38,66,95,57,1.37,3.6,35,0.74,0.7,18,11,8,1030,901,344,10,183,35.8,33.2,0,1.1,7.5,1.2,598
2020/03/03 02:40,68,95,57,1.4,3.6,35,0.74,0.0,18,11,8,1021,891,343,10,182,35.8,33.2,0,1.1,7.5,1.2,564
2020/03/03 02:42,68,95,57,1.4,3.3,33,0.74,1.0,18,11,8,1011,881,341,11,182,35.8,33.3,0,1.1,7.5,1.2,562
2020/03/03 02:44,75,97,63,1.4,3.3,43,0.74,2.3,18,12,7,1007,876,341,11,182,35.8,33.3,0,1.1,7.5,1.2,579
2020/03/03 02:46,66,92,63,1.2,3.3,43,0.74,0.0,18,12,7,998,861,340,12,182,35.8,33.2,0,1.1,7.5,1.3,558
2020/03/03 02:48,71,95,63,1.31,3.3,43,0.74,0.3,18,12,8,990,853,339,12,181,35.8,33.2,0,1.1,7.5,1.4,575
2020/03/03 02:50,75,97,38,1.43,3.3,43,0.51,0.1,13,11,8,978,836,338,12,180,35.8,33.2,0,1.1,7.5,1.5,546
2020/03/03 02:52,68,92,39,1.43,3.0,34,0.45,0.9,13,11,8,978,836,338,12,180,35.8,33.2,0,1.1,7.5,1.5,546
2020/03/03 02:54,68,88,28,1.43,3.0,34,0.45,0.0,14,9,7,976,832,337,12,179,35.8,33.2,0,1.1,7.5,1.6,539
2020/03/03 02:56,53,91,22,1.43,3.2,34,0.45,0.6,12,9,7,1108,929,375,4,288,24.9,34.2,0,1.1,7.5,1.6,518
2020/03/03 02:58,51,91,23,1.35,3.2,34,0.45,0.0,12,9,9,1117,932,377,4,286,25.1,34.1,0,1.1,7.5,1.7,532
2020/03/03 03:00,34,89,23,1.35,3.5,23,0.45,0.0,12,9,9,1122,933,379,4,286,25.2,34.0,0,1.1,7.5,1.8,509
2020/03/03 03:02,37,89,19,1.35,3.5,23,0.45,0.2,11,8,9,1130,939,380,3,284,25.4,33.9,0,1.1,7.5,1.9,520
2020/03/03 03:04,54,92,18,1.63,3.5,28,0.53,0.6,11,8,9,1143,946,383,3,275,25.9,33.7,0,1.1,7.5,2.0,445
2020/03/03 03:06,58,93,24,1.7,3.5,28,0.53,0.0,12,9,9,1150,950,384,3,271,26.1,33.6,0,1.1,7.5,2.1,440
2020/03/03 03:08,58,93,27,1.7,3.2,28,0.53,0.6,12,9,9,1165,954,387,3,271,26.3,33.6,0,1.1,7.5,2.2,474
2020/03/03 03:10,58,93,25,1.7,3.7,28,0.53,0.0,12,9,8,1183,958,390,3,268,26.4,33.6,0,1.1,7.5,2.2,477
2020/03/03 03:12,42,90,20,1.46,3.7,22,0.53,1.2,12,8,7,1196,958,393,3,268,26.4,33.5,0,1.1,7.5,2.3,534
2020/03/03 03:14,37,86,16,1.4,3.7,22,0.53,0.0,12,8,8,1213,961,395,3,265,26.5,33.4,0,1.1,7.5,2.4,519
2020/03/03 03:16,20,86,14,1.01,3.0,22,0.53,0.0,10,8,7,1217,962,394,3,262,26.5,33.4,0,1.1,7.5,2.4,511
2020/03/03 03:18,20,86,9,1.01,3.3,22,0.53,0.8,10,8,7,1231,963,392,3,258,26.5,33.2,0,1.1,7.5,2.5,545
2020/03/03 03:20,36,90,11,1.02,3.6,36,0.53,3.0,10,8,8,1245,962,386,3,250,26.5,33.0,0,1.1,7.5,2.7,548
2020/03/03 03:22,36,86,9,1.04,3.6,36,0.53,0.0,10,8,7,1255,960,381,4,244,26.5,32.8,0,1.1,7.5,2.9,553
2020/03/03 03:24,39,90,9,1.04,3.6,39,0.53,1.7,11,8,7,1261,957,377,4,240,26.5,32.7,0,1.1,7.5,3.0,589
2020/03/03 03:26,39,90,7,1.04,3.2,39,0.53,0.0,11,8,6,1263,954,373,4,231,26.5,32.5,0,1.1,7.5,3.1,567
2020/03/03 03:28,39,86,4,1.04,3.2,39,0.53,0.0,10,7,7,1263,954,373,4,231,26.5,32.5,0,1.1,7.5,3.1,567
2020/03/03 03:30,42,90,6,1.06,3.2,39,0.53,0.0,11,7,6,1263,952,373,4,231,26.5,32.4,0,1.1,7.5,3.2,588
2020/03/03 03:32,36,86,8,1.06,3.2,33,0.53,0.0,11,7,7,1263,950,367,4,223,26.5,32.2,0,1.1,7.5,3.3,558
2020/03/03 03:34,40,86,8,1.06,3.1,38,0.53,1.1,12,7,6,1266,946,366,4,223,26.4,32.1,0,1.1,7.5,3.3,564
2020/03/03 03:36,33,84,8,0.98,3.1,38,0.52,0.0,12,7,5,1266,941,360,4,216,26.5,31.8,0,1.1,7.5,3.5,538
2020/03/03 03:38,30,84,5,0.95,3.1,38,0.52,0.3,12,7,6,1266,936,360,4,216,26.4,31.8,0,1.1,7.5,3.5,489
2020/03/03 03:40,28,71,2,0.88,2.7,38,0.52,0.0,8,6,6,1264,932,359,4,217,26.6,31.7,0,1.1,7.5,3.6,530
2020/03/03 03:42,22,72,2,0.88,2.7,31,0.52,1.4,8,6,6,1261,925,359,5,226,26.6,31.7,0,1.1,7.5,3.6,530
2020/03/03 03:44,25,80,3,0.91,3.0,31,0.52,0.0,10,6,6,1254,920,358,5,228,27.0,31.6,0,1.1,7.5,3.6,544
2020/03/03 03:46,56,85,3,1.26,3.0,40,0.52,2.6,10,6,6,1251,918,358,5,230,27.2,31.6,0,1.1,7.5,3.5,568
2020/03/03 03:48,59,85,6,1.28,3.0,40,0.52,0.0,12,8,5,1238,915,356,6,229,27.9,31.5,0,1.1,7.5,3.5,565
2020/03/03 03:50,59,85,7,1.28,2.7,40,0.52,0.0,12,8,6,1236,912,354,6,225,28.1,31.4,0,1.1,7.5,3.6,548
2020/03/03 03:52,59,85,7,1.28,2.8,40,0.54,0.9,12,8,5,1228,903,354,6,231,28.5,31.4,0,1.1,7.5,3.6,497
2020/03/03 03:54,52,89,8,1.22,3.0,39,0.54,0.0,11,8,6,1231,887,356,7,244,28.4,31.4,0,1.1,7.5,3.6,397
2020/03/03 03:56,52,89,7,1.22,3.0,38,0.54,0.5,11,8,5,1221,884,355,7,247,29.1,31.3,0,1.1,7.5,3.6,469
2020/03/03 03:58,51,86,4,1.25,3.0,38,0.54,0.0,11,8,6,1253,872,439,50,274,22.7,33.3,0,1.2,7.5,3.4,321
2020/03/03 04:00,36,78,6,1.39,3.0,23,0.54,0.5,11,9,5,1260,867,439,49,278,22.7,33.3,0,1.2,7.5,3.4,365
2020/03/03 04:02,40,84,6,1.39,3.2,26,0.54,0.7,11,9,6,1264,866,439,49,280,22.7,33.3,0,1.2,7.5,3.3,379
2020/03/03 04:04,40,73,5,1.39,3.3,26,0.54,0.0,11,9,5,1269,854,437,48,278,22.8,32.9,0,1.2,7.5,3.5,395
2020/03/03 04:06,39,78,5,1.37,3.3,26,0.54,0.5,11,9,5,1267,843,434,47,276,22.9,32.5,0,1.2,7.5,3.5,504
2020/03/03 04:08,52,83,3,1.37,3.3,34,0.57,1.2,11,8,5,1275,838,434,47,279,22.9,32.6,0,1.2,7.5,3.5,474
2020/03/03 04:10,47,78,3,1.28,3.3,34,0.57,0.0,9,7,5,1281,839,435,47,282,22.8,32.8,0,1.2,7.5,3.5,373
2020/03/03 04:12,43,76,2,1.24,3.3,34,0.57,0.2,9,7,5,1282,823,432,46,282,22.9,32.6,0,1.2,7.5,3.5,385
2020/03/03 04:14,47,80,5,1.25,3.3,34,0.57,0.9,10,10,5,1283,843,436,47,288,22.8,33.0,0,1.2,7.5,3.4,268
2020/03/03 04:16,39,70,8,1.25,2.9,29,0.57,0.1,10,10,6,1284,837,435,47,290,22.9,32.9,0,1.2,7.5,3.4,250
2020/03/03 04:18,39,73,8,1.26,3.2,29,0.57,0.0,10,10,6,1284,823,433,46,291,23.0,32.7,0,1.2,7.5,3.5,254
2020/03/03 04:20,39,78,8,1.26,3.2,29,0.57,0.0,13,9,5,1286,847,436,46,297,23.0,33.4,0,1.2,7.5,3.2,389
2020/03/03 04:22,39,78,6,1.26,3.2,29,0.57,0.3,11,9,6,1287,827,435,46,298,23.1,33.3,0,1.2,7.5,3.3,390
2020/03/03 04:24,8,44,7,0.93,2.5,5,0.13,0.0,12,9,6,1285,819,434,45,297,23.1,33.1,0,1.2,7.5,3.4,406
2020/03/03 04:26,10,69,6,0.88,2.6,17,0.34,0.0,12,9,6,1284,805,432,45,296,23.2,32.9,0,1.2,7.5,3.4,385
2020/03/03 04:28,5,54,6,0.68,2.3,13,0.23,0.0,12,9,6,1282,797,431,44,296,23.2,32.8,0,1.2,7.5,3.4,386
2020/03/03 04:30,2,48,5,0.52,2.5,10,0.24,0.0,12,8,6,1280,789,429,44,295,23.3,32.7,0,1.2,7.5,3.5,394
2020/03/03 04:32,2,24,2,0.52,2.1,7,0.15,0.0,9,5,6,1275,774,425,43,293,23.4,32.4,0,1.2,7.4,3.6,391
2020/03/03 04:34,3,42,4,0.52,2.3,10,0.14,0.0,12,7,6,1272,769,422,42,292,23.4,32.2,0,1.2,7.4,3.7,378
2020/03/03 04:36,3,42,12,0.56,2.3,9,0.13,0.0,13,11,6,1269,755,419,41,292,23.6,32.0,0,1.2,7.4,3.8,382
2020/03/03 04:38,4,62,7,0.6,2.4,16,0.44,0.0,12,8,7,1266,745,416,39,292,23.6,31.9,0,1.2,7.4,3.8,370
2020/03/03 04:40,3,48,10,0.55,2.3,12,0.23,0.0,11,9,8,1256,718,409,37,293,23.7,31.5,0,1.1,7.4,3.9,333
2020/03/03 04:42,3,48,9,0.65,2.2,8,0.2,0.0,11,9,8,1254,714,407,36,292,23.7,31.4,0,1.1,7.4,3.9,340
2020/03/03 04:44,5,54,9,0.73,2.5,9,0.17,0.0,12,8,8,1253,710,406,35,292,23.8,31.3,0,1.1,7.4,4.0,348
2020/03/03 04:46,2,54,14,0.47,2.0,12,0.37,0.0,12,8,9,1251,701,403,33,290,24.0,31.0,0,1.1,7.4,4.0,348
2020/03/03 04:48,2,33,10,0.54,1.7,5,0.1,0.0,12,8,9,1245,674,398,30,289,24.5,30.7,0,1.1,7.4,4.0,328
2020/03/03 04:50,3,29,4,0.62,1.4,9,0.23,0.0,11,7,7,1242,659,396,28,288,24.8,30.5,0,1.1,7.4,4.1,329
2020/03/03 04:52,2,22,4,0.6,1.5,4,0.16,0.0,10,7,7,1240,646,394,26,288,25.0,30.3,0,1.1,7.3,4.1,314
2020/03/03 04:54,2,24,4,0.46,1.7,8,0.16,0.0,10,7,6,1240,650,389,23,287,25.5,29.9,0,1.1,7.3,4.2,257
2020/03/03 04:56,2,24,5,0.46,1.7,7,0.12,0.0,9,8,6,1240,650,389,23,287,25.5,29.9,0,1.1,7.3,4.2,257
2020/03/03 04:58,3,24,14,0.42,1.5,4,0.16,0.0,8,7,6,1293,633,396,35,367,35.6,40.8,0,1.2,7.9,4.2,222
2020/03/03 05:00,3,12,10,0.43,1.4,7,0.09,0.0,7,6,5,1298,640,393,37,353,35.3,40.6,0,1.2,7.8,4.0,735
2020/03/03 05:02,4,25,11,0.52,1.5,5,0.24,0.0,7,6,5,1289,625,387,34,367,35.3,40.3,0,1.2,7.7,4.1,201
2020/03/03 05:04,3,25,11,0.49,1.7,6,0.18,0.0,7,6,5,1297,638,397,35,365,35.5,40.8,0,1.2,7.9,4.2,270
2020/03/03 05:06,2,22,11,0.38,1.7,6,0.12,0.0,10,6,5,1297,635,389,36,354,35.3,40.4,0,1.2,7.7,4.0,695
2020/03/03 05:08,2,29,18,0.38,1.5,3,0.08,0.0,10,8,7,1297,632,390,32,371,35.2,40.4,0,1.2,7.8,4.2,201
2020/03/03 05:10,2,24,11,0.35,1.4,8,0.13,0.0,10,6,6,1299,638,389,34,358,35.3,40.3,0,1.2,7.7,4.1,658
2020/03/03 05:12,2,22,11,0.35,1.6,7,0.17,0.0,10,6,6,1300,639,389,34,359,35.3,40.3,0,1.2,7.7,4.1,672
2020/03/03 05:14,2,22,10,0.36,1.5,10,0.17,0.0,7,6,5,1299,637,387,34,360,35.3,40.1,0,1.2,7.7,4.1,673
2020/03/03 05:16,3,22,10,0.43,1.8,12,0.18,0.0,7,5,5,1296,634,384,33,360,35.2,39.9,0,1.2,7.6,4.0,630
2020/03/03 05:18,3,12,10,0.47,1.8,6,0.12,0.0,7,5,5,1298,635,385,32,365,35.0,39.7,0,1.2,7.6,4.1,605
2020/03/03 05:20,3,25,11,0.47,1.7,12,0.19,0.0,8,6,5,1304,640,387,32,364,34.9,39.9,0,1.2,7.6,4.1,639
2020/03/03 05:22,5,46,11,0.57,2.3,12,0.28,0.0,8,6,6,1303,639,389,32,368,34.9,39.9,0,1.2,7.6,4.1,509
2020/03/03 05:24,3,28,11,0.5,2.3,6,0.17,0.0,8,6,5,1309,640,387,31,371,34.1,39.5,0,1.2,7.6,4.1,596
2020/03/03 05:26,3,22,14,0.45,1.7,4,0.12,0.0,8,7,5,1314,639,386,30,375,33.4,39.2,0,1.2,7.5,4.2,583
2020/03/03 05:28,2,24,11,0.48,1.5,2,0.12,0.0,8,7,6,1348,689,392,28,410,30.5,38.1,0,1.1,7.4,4.4,42
2020/03/03 05:30,3,29,9,0.5,1.9,2,0.09,0.0,7,6,6,1346,683,391,29,405,31.4,38.7,0,1.1,7.5,4.4,141